Dewpoint
21 23 24 26 25 24 23 24 23 22 22 21 21 20 20 21 21 22 24 23 23 22 22 22 22 23 25 28 30 32 32 31 30 30 30 30 30 30 30 30 30 30 31 31 32 32 33 33 34 34 34 34 34 34 34 34 34 35 35 35 35 35 35 36 37 38 38 38 38 39 39 39 40 41 42 42 43 43 43 43 43 43 43 43 43 42
23 25 25 25 24 23 22 22 22 21 20 19 18 19 19 20 21 21 22 23 22 21 21 21 22 23 24 27 29 30 30 30 30 30 30 30 30 30 30 30 30 31 31 32 32 32 32 32 32 32 32 32 32 33 33 33 33 33 34 34 35 35 36 37 37 38 38 38 38 38 38 38 39 40 41 42 42 43 43 43 43 42 42 41 41 42
24 24 23 23 23 22 21 21 20 20 19 18 18 19 20 21 22 23 22 21 21 21 21 22 24 24 23 24 26 28 29 30 30 30 30 30 30 30 30 30 30 31 31 31 31 31 31 31 31 31 32 32 32 32 32 33 33 33 33 34 35 35 36 37 37 38 38 38 37 37 37 37 38 39 40 40 41 42 42 42 42 41 40 40 41 41
23 22 22 22 21 21 20 19 19 19 19 19 21 22 23 24 24 23 22 21 21 22 24 25 24 23 21 21 23 26 29 30 30 30 30 30 30 30 30 30 30 30 30 30 30 30 30 31 31 31 32 32 32 32 32 32 33 33 34 34 35 35 35 36 36 37 37 37 37 38 38 38 38 38 39 39 40 40 41 41 40 40 40 40 41 41
23 22 21 21 20 19 19 19 19 19 21 22 23 24 25 24 23 21 21 22 23 25 25 23 22 20 19 20 22 26 29 29 29 29 29 29 29 29 29 29 29 29 29 30 30 30 30 31 31 31 31 32 32 32 32 33 33 33 34 34 35 35 35 35 36 37 37 37 38 38 38 39 39 39 39 39 39 39 39 39 39 39 39 40 40 41
23 22 22 21 20 19 19 20 21 22 24 25 25 25 23 21 21 21 22 23 24 24 23 21 21 20 19 20 22 25 28 28 28 28 28 28 28 28 29 29 29 29 29 30 30 30 30 31 31 31 32 32 32 32 33 33 33 34 34 34 35 35 35 36 37 37 37 37 37 37 37 38 38 39 39 39 39 39 39 39 39 39 39 39 40 40
23 22 21 21 20 20 20 21 24 26 27 26 24 22 20 20 21 22 23 23 23 23 22 22 21 20 19 19 21 23 25 25 26 26 26 27 27 28 28 28 29 29 29 30 30 30 31 31 31 32 32 32 32 32 33 33 34 34 34 35 35 35 36 36 37 37 37 36 36 35 35 35 36 37 38 38 39 38 38 38 38 38 38 38 38 39
21 21 21 20 21 21 22 25 28 28 26 23 21 20 21 22 23 23 23 23 23 22 21 20 20 18 17 17 17 19 19 19 20 21 22 23 25 26 27 28 28 29 29 30 30 30 31 31 31 31 31 31 32 32 33 33 33 33 33 34 34 34 35 35 35 35 35 35 35 35 34 34 34 35 36 36 37 37 37 37 37 37 37 37 37 37
21 20 20 20 21 22 24 27 27 25 22 21 21 21 22 23 22 21 21 21 21 20 18 17 17 16 15 15 15 16 17 18 18 17 18 19 20 22 25 26 27 28 29 30 30 30 30 30 30 30 30 31 31 32 32 32 32 32 32 32 32 32 32 33 33 33 33 34 34 34 34 34 34 34 34 35 35 35 35 36 36 36 36 36 37 37
20 20 20 21 23 25 26 25 22 21 21 21 23 24 24 21 20 18 18 17 17 17 17 16 16 15 15 15 15 16 17 19 21 22 23 22 23 24 25 26 26 27 28 29 29 29 29 29 29 30 30 30 30 30 30 30 30 30 30 30 30 30 30 31 31 32 32 33 34 34 34 34 34 34 34 34 34 34 34 35 35 35 36 36 37 37
20 21 21 24 26 26 25 22 20 20 22 23 23 23 21 19 17 17 16 15 15 16 16 16 16 15 15 15 15 16 17 17 19 21 24 25 26 27 27 27 26 27 28 28 28 28 28 28 29 29 29 30 30 29 29 29 28 28 29 29 29 30 30 30 31 31 32 32 33 33 34 34 34 34 34 34 34 33 33 34 34 35 35 36 37 37
21 22 25 26 26 24 21 21 21 22 23 21 20 18 16 16 17 17 15 15 15 15 15 16 16 16 16 16 16 17 17 17 17 18 20 21 22 23 23 23 23 24 25 26 26 27 27 27 28 28 28 28 28 28 27 27 27 28 28 29 29 30 30 30 30 30 31 31 32 32 32 33 33 33 33 33 33 33 33 33 34 34 35 36 37 37
24 26 26 26 24 22 21 21 21 21 20 18 16 15 14 15 16 17 17 16 16 16 16 16 16 17 17 17 17 18 18 18 18 18 18 18 18 18 18 18 18 19 20 20 21 22 24 26 26 26 26 26 26 26 27 26 27 28 28 29 29 30 30 30 30 30 30 31 31 31 32 32 32 33 33 33 34 34 34 34 34 35 35 36 37 37
26 26 26 24 22 21 21 20 19 18 17 16 15 15 15 16 17 17 17 17 17 17 17 17 17 17 17 18 19 19 19 19 19 19 18 17 17 17 17 17 17 18 18 18 19 20 22 23 23 23 25 25 25 25 26 27 27 28 29 29 29 29 29 30 30 30 30 31 31 32 32 32 33 33 34 34 34 35 35 35 35 35 35 36 37 38
26 25 23 21 21 20 19 18 17 16 15 15 16 16 17 17 18 18 18 18 18 19 19 19 18 18 17 18 19 20 20 20 19 18 17 17 18 18 19 18 19 19 19 19 19 20 21 21 20 20 21 22 23 25 26 26 28 28 28 28 28 28 29 29 30 30 31 31 32 32 32 33 34 34 35 35 35 35 35 35 35 35 35 36 37 37
24 22 21 20 19 19 18 17 17 16 16 16 17 17 18 18 18 19 19 19 20 20 20 20 19 19 18 18 19 20 20 19 18 18 18 18 19 20 20 20 20 20 20 19 19 18 19 18 18 19 20 22 25 27 28 27 27 27 27 28 28 28 29 29 30 30 31 31 32 32 32 33 33 33 34 34 34 34 34 34 34 34 35 35 35 35
22 21 20 19 18 17 17 17 16 16 17 17 18 18 18 19 19 20 21 21 21 21 21 20 20 19 18 17 17 18 19 19 19 19 19 19 19 20 20 20 19 19 18 18 17 17 17 18 18 19 20 23 26 27 27 27 27 27 27 28 28 28 29 30 30 30 31 31 31 32 32 32 32 32 33 33 33 33 33 33 33 33 34 34 35 35
21 21 20 19 17 17 16 16 16 17 17 18 18 19 20 21 21 22 22 21 21 21 21 20 19 19 17 17 17 17 19 20 20 20 20 19 19 18 19 19 18 18 17 17 17 17 17 18 18 18 20 24 26 26 26 26 27 27 27 28 28 29 29 30 30 30 31 31 31 32 32 32 32 32 33 33 33 34 34 34 34 34 35 35 35 35
20 19 18 17 17 17 17 17 17 17 18 19 20 21 21 22 23 23 22 22 21 21 21 20 19 18 17 17 17 18 20 20 21 20 20 19 18 18 17 18 18 18 17 17 17 17 18 18 20 21 24 25 26 26 26 26 27 27 27 28 28 28 29 30 30 30 30 31 31 32 32 33 33 33 34 34 34 35 35 35 35 35 35 35 35 36
19 18 17 17 17 17 17 18 19 19 20 21 22 23 23 23 23 23 22 21 21 21 20 20 19 18 18 18 18 19 20 21 21 20 20 18 17 17 17 17 18 17 17 17 17 18 18 17 18 20 23 25 26 26 26 26 27 27 27 28 28 28 29 29 30 30 31 31 32 32 32 33 33 34 34 34 35 35 35 35 35 35 35 35 35 35
18 18 18 18 18 18 18 19 20 21 23 25 25 25 24 24 23 22 21 21 20 20 20 19 19 19 19 19 19 20 21 21 21 20 19 18 17 17 17 17 17 17 17 17 18 18 19 17 18 19 21 24 25 26 26 26 27 27 27 28 28 28 29 29 30 30 30 31 31 32 32 32 32 33 33 33 34 34 34 34 34 34 35 35 35 35
19 19 19 19 20 20 21 21 23 25 26 27 26 25 23 22 21 21 21 20 20 21 21 21 21 21 21 21 21 21 21 21 20 20 19 18 17 17 17 17 17 17 17 17 17 18 19 18 17 18 21 24 25 26 26 26 27 27 27 28 28 28 28 29 29 29 30 30 30 31 31 31 31 32 32 32 32 33 33 33 33 34 34 34 35 35
20 20 20 21 21 22 24 24 26 26 27 26 25 23 22 21 21 21 21 22 22 22 22 22 22 22 21 21 21 20 20 20 20 20 19 18 17 16 16 17 17 17 17 17 17 17 17 17 17 18 21 24 25 26 26 26 27 27 27 27 28 28 28 28 28 29 29 30 30 30 30 31 31 31 31 32 32 32 33 33 33 33 34 34 34 35
21 22 22 24 25 26 27 27 26 26 24 22 21 21 22 22 22 22 23 23 23 23 23 22 21 21 20 19 19 18 18 18 19 19 18 17 16 16 16 17 17 17 16 17 16 16 16 17 17 19 20 23 25 26 26 26 26 27 27 27 27 27 27 27 28 28 29 30 30 30 31 31 31 32 32 32 33 33 33 33 33 33 34 34 34 35
23 24 26 26 28 29 27 26 24 23 22 21 21 21 23 23 24 23 23 23 22 22 21 21 20 18 17 18 17 16 16 17 17 18 17 17 17 16 16 17 17 16 17 17 17 17 17 17 18 18 19 21 23 25 26 26 26 26 26 27 27 27 27 28 28 29 30 30 30 30 31 31 32 32 32 33 33 33 33 33 33 34 34 34 35 35
27 28 28 28 28 27 26 26 26 26 25 24 23 22 22 22 23 23 22 22 21 21 21 20 18 17 17 16 15 15 15 17 17 17 17 17 17 17 17 17 17 17 17 17 18 18 17 17 18 18 18 19 21 24 25 26 26 26 26 27 27 27 27 28 28 29 29 29 30 30 30 30 30 31 31 31 32 32 32 32 33 33 34 34 35 35
29 28 28 26 26 26 26 26 26 27 27 27 26 24 23 23 22 22 21 21 21 20 20 18 17 17 16 15 15 15 15 16 17 17 17 17 17 17 17 17 17 17 17 17 17 18 19 18 18 18 18 18 20 22 24 25 26 26 26 26 26 27 27 27 27 27 28 28 28 28 29 29 30 30 30 30 30 30 31 31 31 32 32 33 33 33
27 26 24 24 24 25 25 26 26 26 26 26 27 26 25 23 22 21 21 20 20 20 19 18 17 17 16 15 15 15 15 15 16 16 17 18 17 17 17 17 17 17 17 17 17 18 19 18 18 17 17 17 18 20 22 24 25 25 25 26 26 26 26 26 27 27 27 28 28 28 29 29 30 30 30 30 30 30 31 31 31 31 32 32 31 31
23 23 23 24 24 24 25 24 25 25 26 26 26 26 26 24 22 22 21 21 21 20 19 18 17 17 17 16 16 16 15 14 15 16 17 17 17 17 16 16 17 17 17 17 17 17 17 16 16 15 15 17 17 18 19 21 22 23 24 25 26 26 26 26 27 27 27 28 28 28 29 30 30 30 30 31 31 31 32 32 32 33 33 33 33 32
20 21 21 21 22 22 22 21 22 23 25 26 26 26 25 23 22 22 22 21 21 20 19 18 18 17 17 17 16 15 13 13 14 16 17 17 17 16 16 16 17 17 17 17 16 15 13 14 14 14 15 17 17 17 17 19 20 20 21 22 23 24 26 26 26 27 27 27 28 28 29 30 30 30 31 31 31 32 32 32 33 33 34 33 33 33
18 18 18 18 19 19 19 20 20 21 23 24 24 24 23 22 21 21 21 21 21 21 19 19 18 17 17 17 16 14 12 13 15 17 18 18 17 17 17 17 17 17 18 18 17 14 13 12 13 14 15 16 17 17 18 18 18 18 18 19 20 22 24 26 26 26 27 27 28 28 29 29 30 30 30 30 31 31 31 32 32 32 32 31 31 31
18 18 18 18 18 18 19 19 20 20 21 21 21 22 21 21 21 21 21 21 21 21 20 19 19 18 18 17 17 15 14 15 17 18 19 19 19 19 18 18 18 18 18 18 17 16 14 13 13 14 15 16 16 17 17 18 18 18 18 19 19 20 23 25 26 26 26 26 27 28 28 29 29 30 30 30 30 31 31 31 32 31 30 30 30 30
18 18 18 18 18 18 19 19 19 19 20 20 20 20 20 20 20 20 20 20 21 21 21 20 19 18 18 17 17 17 16 16 17 20 21 21 20 19 19 18 18 18 18 18 18 17 16 15 15 15 16 16 16 17 17 18 18 19 19 19 19 20 22 23 24 24 25 26 26 27 28 29 29 30 30 30 30 31 31 31 31 31 31 30 30 30
19 19 18 18 18 18 19 19 19 19 19 19 19 19 19 19 19 19 20 20 20 21 21 21 20 19 18 18 17 17 16 16 18 21 22 21 21 20 19 18 18 18 18 17 17 17 17 16 16 16 16 16 17 17 17 18 19 20 20 21 20 21 21 22 23 23 24 25 25 25 26 26 28 29 30 30 30 30 31 31 31 32 32 31 30 30
18 18 18 18 18 18 18 18 18 18 18 18 18 18 18 18 18 19 19 20 20 20 21 21 21 21 20 19 18 17 17 17 19 21 23 22 21 21 20 19 18 17 18 17 17 17 16 16 17 17 16 16 17 17 18 18 20 21 21 22 22 22 22 23 23 23 24 24 23 23 24 24 25 26 27 28 29 30 31 31 31 32 32 32 32 31
18 18 18 18 17 17 17 17 17 17 17 17 17 17 18 18 18 18 19 19 20 20 21 21 21 21 21 21 20 19 19 19 21 22 24 23 23 22 21 19 18 18 19 18 18 17 17 17 17 17 17 17 16 17 17 19 20 21 22 22 23 23 22 23 23 23 23 23 23 23 23 24 24 25 26 28 30 30 31 32 32 33 33 34 34 33
17 17 17 17 17 17 17 16 16 16 16 16 17 17 17 17 18 18 18 20 20 20 20 21 21 21 22 22 22 22 21 21 22 23 24 24 23 22 21 20 20 20 20 19 18 18 17 17 17 17 17 16 16 16 17 18 19 20 20 21 21 21 21 22 22 22 22 23 23 23 24 24 25 26 26 28 30 30 31 32 32 33 33 34 34 35
17 17 17 17 17 16 16 16 16 16 16 16 17 17 17 17 18 18 18 19 20 20 19 19 19 20 22 23 24 24 23 23 23 24 24 24 24 24 22 21 21 21 21 20 20 19 19 17 17 16 15 15 16 17 18 18 18 18 19 20 20 21 21 21 22 22 23 23 24 24 25 25 26 26 26 27 27 27 28 28 29 30 32 33 34 35
17 17 17 17 17 16 16 16 16 16 17 17 17 18 18 18 18 18 18 18 19 19 19 19 19 20 21 22 23 24 24 24 24 25 25 25 25 24 23 22 21 21 21 21 21 21 20 19 17 17 16 16 17 17 17 18 18 18 19 20 20 20 21 21 22 23 23 24 24 25 25 25 25 25 25 26 26 26 26 26 27 28 29 29 30 32
17 17 17 17 17 17 16 17 17 17 17 17 18 19 18 18 18 18 18 18 18 19 19 19 19 20 20 21 22 23 24 24 25 25 25 25 25 24 24 23 22 22 22 22 21 21 21 20 19 18 18 17 17 17 17 17 18 19 20 20 19 20 21 22 22 23 23 24 24 25 25 25 25 25 26 26 26 26 26 26 27 28 29 28 28 28
17 17 16 17 17 17 17 17 17 17 17 17 17 17 17 18 18 18 17 18 19 19 19 19 19 19 20 21 21 21 22 23 24 24 24 25 25 24 24 23 23 23 22 22 21 21 21 21 20 19 19 18 18 18 18 18 19 21 21 20 20 20 21 22 23 23 24 24 25 25 26 26 26 27 27 27 27 28 28 28 28 28 29 29 28 27
17 17 16 16 16 16 16 17 17 18 18 17 17 17 17 18 18 18 18 18 18 18 18 18 19 19 19 19 20 20 21 22 23 24 24 25 25 25 24 24 24 23 23 23 22 22 21 21 20 19 19 18 18 18 17 18 19 20 21 20 21 21 22 22 23 23 24 25 25 26 27 27 27 27 27 28 28 29 30 30 30 30 30 30 30 29
17 16 16 16 16 16 17 17 17 17 17 17 17 17 17 18 18 18 18 18 18 18 18 19 19 19 18 18 18 19 20 21 22 23 24 24 24 25 25 25 25 25 25 23 22 21 21 21 20 20 19 19 19 19 18 18 19 20 20 21 21 21 20 21 22 23 24 25 26 26 27 27 27 28 28 29 29 30 30 31 32 33 33 32 32 31
17 16 16 16 17 17 17 17 17 17 17 17 17 17 18 18 19 19 19 18 18 19 19 19 19 19 18 18 17 17 18 20 21 22 23 24 25 26 26 25 25 25 25 23 22 21 20 20 20 20 20 20 20 19 19 18 19 19 20 21 22 22 21 22 23 24 25 25 26 26 27 28 29 29 30 30 30 30 31 31 32 32 34 34 33 33
17 17 17 17 17 17 16 16 16 17 17 17 17 17 17 18 19 19 19 18 18 19 19 19 19 18 17 17 17 17 18 19 20 21 22 24 25 26 25 25 24 24 24 23 22 21 21 20 20 20 20 21 20 20 19 19 19 20 21 22 23 23 23 24 25 25 25 26 26 27 28 29 30 30 30 30 30 30 31 32 32 33 33 34 34 34
17 17 17 17 16 16 17 17 17 17 17 17 17 17 17 18 18 18 19 19 19 19 19 19 18 17 17 17 17 17 18 18 19 20 21 21 22 23 24 24 24 24 23 23 23 22 22 21 21 21 21 20 20 20 20 20 20 21 21 22 23 23 24 25 25 26 26 27 28 29 30 30 30 30 30 30 30 30 31 32 32 32 33 33 34 34
17 16 16 16 16 16 16 16 17 17 17 17 17 17 17 18 18 18 19 19 19 18 18 18 18 17 17 17 17 17 18 18 19 19 20 21 21 22 22 23 24 24 24 23 23 23 23 22 22 22 21 20 19 19 20 21 21 21 22 23 23 24 24 25 26 27 28 29 30 30 31 31 31 30 30 30 30 30 31 32 32 33 33 33 34 34
17 16 16 16 16 16 16 16 16 16 16 17 17 17 17 18 18 19 19 18 18 18 18 18 17 17 17 17 18 18 19 19 19 20 20 20 21 21 22 22 23 23 23 23 23 23 23 23 23 23 22 21 20 19 20 21 21 22 23 23 24 25 25 26 27 28 30 31 31 32 32 31 30 30 30 30 29 30 30 31 32 33 34 34 34 34
16 16 16 16 16 16 16 16 16 16 16 17 17 17 17 18 19 19 18 18 18 18 18 17 17 17 17 17 18 19 19 20 20 20 20 20 21 21 22 22 22 22 22 22 22 22 22 24 24 24 24 23 21 21 21 21 22 23 24 25 26 26 26 27 28 30 30 31 32 32 32 31 31 30 30 30 29 29 29 30 31 32 33 34 34 35
16 16 16 16 16 16 16 16 16 17 17 17 17 17 17 17 18 18 18 18 18 18 17 17 18 18 17 18 18 19 20 20 20 20 20 21 21 21 22 22 21 21 21 20 20 20 21 21 23 25 26 26 25 24 23 23 24 25 26 26 26 26 27 28 29 30 31 31 31 32 32 31 31 31 30 30 29 29 29 29 30 31 33 34 34 35
17 16 16 16 16 16 16 16 17 17 17 17 17 18 17 17 17 17 17 17 17 17 17 18 18 18 18 18 19 19 20 20 20 20 20 21 21 21 22 22 21 21 20 19 19 19 19 19 19 21 23 26 27 28 27 26 26 26 26 26 26 27 27 28 29 30 31 31 31 31 31 31 30 30 30 30 29 29 28 28 29 30 32 33 34 35